User: anonymous   Login
Location: Olomouc
(49.5830°N, 17.2500°E)
Time: 20:59:05
(UTC+02:00)
Language:

ISS - Orbit

View from above orbital plane
View from above orbital plane
View from above satellite
View from above satellite

Ground track
Ground track

The orbit data is extracted from the following two-line orbital elements,

1 25544U 98067A   21165.65494892  .00001433  00000-0  34198-4 0  9992
2 25544  51.6442 355.2496 0003490  94.7773  22.5032 15.48985798288209
Epoch (UTC): 14 June 2021 15:43:07
Eccentricity: 0.0003490
inclination: 51.6442°
perigee height: 417 km
apogee height: 422 km
right ascension of ascending node: 355.2496°
argument of perigee: 94.7773°
revolutions per day: 15.48985798
mean anomaly at epoch: 22.5032°
orbit number at epoch: 28820

The dashed part of the orbit path shows where the satellite is in the earth's shadow,  

DLR